STARLINK-37600, 69359

Orbit data source: Space-Track

STARLINK-37600, 69359 is a payload satellite owned by SpaceX/Seattle (US) in LEO that was launched on Thu, 04 Jun 2026 UTC via an FALCON 9 launch vehicle from the Air Force Eastern Test Range (AFETR). Payload-class satellites include a variety of spacecraft equipped with specific instruments for various scientific and technological missions. These include communications satellites like Starlink; space stations such as the ISS; scientific satellites like the Hubble; Earth observation satellites from companies like Planet Labs, Umbra, and HawkEye 360; GPS; miniature CubeSats for education and research; and military/defense satellites.

Loading next visibility...
Identifier
69359, 2026-123G
Orbit
LEO
Country
Flag of USUS
Related business
Manufacturer
SpaceX/Seattle
Mission
Operational spacecraft
Bus & Motor
STARLINK V2MO, Unknown motor
Mass
575 kg wet, ~530 kg dry
Launch date (UTC)
2026-06-04 (2 months ago)
Launch vehicle
FALCON 9
Launch site
Air Force Eastern Test Range (AFETR)
Object type
Payload
Rocket body
Debris
Shape & HBR
BOX + PAN, 17.7 m
Radar Cross Section
Large (>1 m²)

Expand to show TLE details & history
Last TLE update: 10 hours ago

TLE from 10 hours ago
0 STARLINK-37600
1 69359U 26123G   26207.57011543  .00269528  00000-0  16996-2 0  9994
2 69359  53.1550  46.0452 0001063 139.8467 220.2632 15.75338203  8240
Epoch: 2026-07-26T13:40Z
TLE epoch observation values (Epoch: 2026-07-26T13:40:57.973Z)
Latitude
-0°
Longitude
-103.4625°
Altitude
345.131 km
Speed
7.703 km/s
True Right ascension
03h 04m 10s
True Declination
0° 00' 00"
Sunlit
Object was in daylight at epoch
Visualization orbit readout
Latitude
Unknown
Longitude
Unknown
Altitude
Unknown
Speed
Unknown
Apparent Right ascension
Unknown
Apparent Declination
Unknown
Sunlit
N/A
Visualization observer readout
Local Sidereal Time
13:11:15
Azimuth
Unknown
Elevation
Unknown
Doppler factor
Unknown
Orbital elements
Apogee altitude
344.646 km
Perigee altitude
343.217 km
Semi-major axis
6,722.068 km
Eccentricity
0.00011
Inclination
53.155°
RAAN
46.0452°
Arg. of periapsis
139.8467°
True anomaly
220.25533°
Mean anomaly
220.2632°
Eccentric anomaly
220.25926°
Mean motion
3.93812 °/min
Orbital period
91.41 mins
BSTAR
0.0016996
Loading maneuver chart data...
Computing Atmospheric mass density...
Loading historical data...
Loading historical data...
Loading historical data...
Loading historical data...
Loading historical data...
Loading historical data...
Loading historical data...

Documentation

Showing up to 5 results
|